Flag Weather past 2 weeks in Kawasaki, Japan

Now
61 °F

Passing clouds.


Feels Like: 61 °F
Forecast: 54 / 58 °F
Wind: 14 mph from East

Location: Tokyo International Airport

Current Time: Nov 23, 2014 at 6:08:27 PM

Latest Report: Nov 23, 2014 at 5:30 PM


Visibility: N/A

Pressure: 30.18 "Hg

Humidity: 72%

Dew point: 52 °F

Location of KawasakiLocation

Historic Weather in Kawasaki — Graph

°F

Kawasaki temperature yesterday

Maximum temperature yesterday: 63 °F (at 7:30 PM)
Minimum temperature yesterday: 52 °F (at 1:30 AM)
Average temperature yesterday: 57 °F

Past Weeks' High & Low Weather Summary

 TemperatureHumidityPressure
High70 °F (Nov 10, 1:00 PM)94% (Nov 10, 12:30 AM)30.33 "Hg (Nov 10, 12:30 AM)
Low46 °F (Nov 14, 6:30 AM)29% (Nov 13, 6:30 PM)29.56 "Hg (Nov 13, 4:00 AM)
Average57 °F60%30.06 "Hg
* Reported Nov 8 5:00 PM — Nov 23 5:00 PM, Kawasaki, Weather by CustomWeather, © 2014

Note: Actual official high and low records may vary slightly from our data, if they occured in-between our weather recording intervals... More about our weather records

Advertising

Kawasaki weather history for previous 24 hours

 ConditionsComfort  
Time TempWeatherWind HumidityBarometerVisibility
5:00 PM
Nov 23
61 °FPassing clouds.16 mph77%30.15 "HgN/A
4:30 PM61 °FPassing clouds.17 mph72%30.15 "HgN/A
4:00 PM63 °FScattered clouds.15 mph73%30.12 "HgN/A
3:30 PM63 °FPassing clouds.13 mph73%30.12 "HgN/A
3:00 PM63 °FPassing clouds.12 mph73%30.12 "HgN/A
2:30 PM64 °FPassing clouds.10 mph68%30.12 "HgN/A
2:00 PM64 °FPassing clouds.7 mph60%30.12 "HgN/A
1:30 PM64 °FPassing clouds.9 mph56%30.12 "HgN/A
1:00 PM64 °FPassing clouds.10 mph56%30.12 "HgN/A
12:30 PM64 °FPassing clouds.9 mph49%30.12 "HgN/A
12:00 PM63 °FPassing clouds.10 mph52%30.12 "HgN/A
11:30 AM63 °FPassing clouds.9 mph49%30.12 "HgN/A
11:00 AM61 °FPassing clouds.7 mph48%30.15 "HgN/A
10:30 AM61 °FPassing clouds.8 mph48%30.15 "HgN/A
10:00 AM59 °FPassing clouds.9 mph51%30.15 "HgN/A
9:30 AM59 °FPassing clouds.12 mph51%30.15 "HgN/A
9:00 AM57 °FPassing clouds.10 mph55%30.15 "HgN/A
8:30 AM55 °FPassing clouds.8 mph59%30.15 "HgN/A
8:00 AM55 °FSunny.12 mph55%30.15 "Hg10 mi
7:30 AM54 °FSunny.7 mph63%30.15 "Hg10 mi
7:00 AM50 °FSunny.3 mph71%30.12 "Hg10 mi
6:30 AM50 °FSunny.6 mph67%30.12 "Hg10 mi
6:00 AM52 °FPassing clouds.7 mph62%30.12 "HgN/A
5:30 AM54 °FPassing clouds.8 mph63%30.12 "HgN/A
5:00 AM54 °FPassing clouds.9 mph63%30.12 "HgN/A
4:30 AM52 °FPassing clouds.6 mph67%30.12 "HgN/A
4:00 AM52 °FPassing clouds.5 mph67%30.12 "HgN/A
3:30 AM54 °FPassing clouds.8 mph67%30.12 "HgN/A
3:00 AM54 °FPassing clouds.8 mph67%30.12 "HgN/A
2:30 AM54 °FPassing clouds.6 mph72%30.12 "Hg5 mi
2:00 AM54 °FPassing clouds.6 mph67%30.12 "Hg5 mi
1:30 AM54 °FPassing clouds.6 mph72%30.15 "Hg5 mi
1:00 AM54 °FPassing clouds.5 mph77%30.12 "Hg6 mi
12:30 AM57 °FPassing clouds.8 mph67%30.15 "HgN/A
12:00 AM55 °FPassing clouds.7 mph72%30.15 "HgN/A
11:30 PM
Nov 22
54 °FPassing clouds.6 mph77%30.15 "HgN/A
11:00 PM55 °FPassing clouds.6 mph72%30.15 "HgN/A
10:30 PM57 °FPassing clouds.2 mph72%30.15 "HgN/A
10:00 PM55 °FPassing clouds.6 mph77%30.15 "HgN/A
9:30 PM57 °FPassing clouds.6 mph72%30.15 "HgN/A
9:00 PM59 °FPassing clouds.3 mph68%30.15 "HgN/A
8:30 PM59 °FPassing clouds.2 mph68%30.15 "HgN/A
8:00 PM59 °FPassing clouds.1 mph77%30.15 "HgN/A
7:30 PM63 °FPassing clouds.1 mph59%30.15 "HgN/A
7:00 PM61 °FPassing clouds.1 mph77%30.15 "HgN/A
6:30 PM61 °FPassing clouds.2 mph68%30.15 "HgN/A
6:00 PM59 °FPassing clouds.2 mph63%30.12 "HgN/A
Weather by CustomWeather, © 2014

See weather overviewHow to use our weather pages